Tracking 28790 objects as of 19-Apr-2024
HD Live streaming from Space Station
objects crossing your sky now

FENGYUN 1C DEB

Track FENGYUN 1C DEB now!
10-day predictions


NORAD ID: 30272
Int'l Code: 1999-025YH
Perigee: 829.9 km
Apogee: 905.9 km
Inclination: 98.9 °
Period: 102.2 minutes
Semi major axis: 7238 km
RCS: 0.033 m2 (small)
Launch date: May 10, 1999
Source: People's Republic of China (PRC)
Launch site: Taiyaun Space Center, China (TSC)

Note: This is SATELLITE DEBRIS
Your satellite tracking list
Your tracking list is empty




NASA's NSSDC Master Catalog

Two Line Element Set (TLE):
1 30272U 99025YH  24109.68920093  .00005750  00000-0  32652-2 0  9999
2 30272  98.9367 174.1236 0052509   9.3413 350.8722 14.09600694883435
Source of the keplerian elements: AFSPC